Date String (YYYY-MM-DD hh:mm:ss) UTC,Instrument flags,Ambient pressure (hPa),Sample flow (lpm),Bypass flow (lpm),Sample temperature (°C),Ambient temperature (°C),ASC tube jacket temperature (°C),LED temperature (°C),Box temperature (°C),Sample RH (%),Span deviation,Mass concentration (μg/m³),Mass concentration (μg/m³),Mass concentration (μg/m³)
DateTimeUTC,F1_M11,P_M11,Q1_M11,Q2_M11,T1_M11,T2_M11,T3_M11,T4_M11,T5_M11,U1_M11,ZSPAN_M11,X0_M11,X2_M11,X1_M11
2023-01-27 04:00:00,,0824.1,5.00,0.00,22.0,20.2,00.0,31.0,23.5,08.6,0000.0,0007.49,0001.18,0000.50
2023-01-27 04:01:00,,0824.1,5.01,0.00,21.9,20.2,00.0,31.0,23.5,08.4,0000.0,0007.51,0001.19,0000.50
2023-01-27 04:02:00,,0824.1,5.00,0.00,22.0,21.2,00.0,30.9,23.8,08.5,0000.0,0005.72,0001.06,0000.50
2023-01-27 04:03:00,,0824.1,4.99,0.00,22.1,22.3,00.0,30.9,24.0,08.2,0000.0,0004.61,0000.99,0000.48
2023-01-27 04:04:00,,0824.1,4.99,0.00,22.2,22.9,00.0,30.9,24.2,07.8,0000.0,0004.35,0000.86,0000.47
2023-01-27 04:05:00,,0824.1,4.99,0.00,22.3,22.4,00.0,31.0,24.2,07.8,0000.0,0003.67,0000.86,0000.46
2023-01-27 04:06:00,,0824.1,5.01,0.00,22.3,21.9,00.0,31.0,24.1,07.7,0000.0,0003.00,0000.92,0000.46
2023-01-27 04:07:00,,0824.1,5.00,0.00,22.3,21.6,00.0,31.0,24.0,07.8,0000.0,0003.03,0000.94,0000.46
2023-01-27 04:08:00,,0824.1,5.01,0.00,22.2,21.2,00.0,31.1,24.0,07.9,0000.0,0002.65,0000.86,0000.46
2023-01-27 04:09:00,,0824.1,5.00,0.00,22.2,21.0,00.0,31.1,24.0,08.1,0000.0,0002.59,0000.89,0000.46
2023-01-27 04:10:00,,0824.1,4.99,0.00,22.2,20.8,00.0,31.1,23.9,07.8,0000.0,0002.58,0000.85,0000.46
2023-01-27 04:11:00,,0824.1,5.01,0.00,22.2,20.7,00.0,31.1,23.9,07.8,0000.0,0002.32,0000.83,0000.46
2023-01-27 04:12:00,,0824.1,4.99,0.00,22.2,20.6,00.0,31.0,23.9,08.1,0000.0,0002.33,0000.81,0000.46
2023-01-27 04:13:00,,0824.0,5.01,0.00,22.1,20.6,00.0,31.0,23.8,08.1,0000.0,0002.65,0000.86,0000.46
2023-01-27 04:14:00,,0824.1,5.01,0.00,22.1,20.5,00.0,31.0,23.8,08.0,0000.0,0002.69,0000.90,0000.47
2023-01-27 04:15:00,,0824.1,4.99,0.00,22.1,20.5,00.0,31.0,23.7,08.1,0000.0,0003.03,0000.91,0000.47
2023-01-27 04:16:00,,0824.1,5.00,0.00,22.1,20.4,00.0,31.0,23.7,08.3,0000.0,0002.84,0000.87,0000.46
2023-01-27 04:17:00,,0824.0,5.01,0.00,22.0,20.4,00.0,31.0,23.7,08.1,0000.0,0002.69,0000.81,0000.46
2023-01-27 04:18:00,,0824.0,5.01,0.00,22.0,20.4,00.0,31.0,23.7,08.0,0000.0,0003.11,0000.82,0000.46
2023-01-27 04:19:00,,0824.1,5.00,0.00,22.1,21.2,00.0,30.9,23.9,08.3,0000.0,0003.66,0000.85,0000.46
2023-01-27 04:20:00,,0824.1,5.00,0.00,22.2,22.3,00.0,30.9,24.1,08.2,0000.0,0003.44,0000.82,0000.46
2023-01-27 04:21:00,,0824.1,5.00,0.00,22.3,22.9,00.0,31.0,24.3,08.1,0000.0,0003.18,0000.79,0000.46
2023-01-27 04:22:00,,0824.0,4.98,0.00,22.3,22.5,00.0,31.0,24.3,08.0,0000.0,0003.13,0000.78,0000.47
2023-01-27 04:23:00,,0824.0,5.02,0.00,22.3,22.0,00.0,31.0,24.2,07.9,0000.0,0003.14,0000.81,0000.47
2023-01-27 04:24:00,,0824.1,4.99,0.00,22.3,21.7,00.0,31.1,24.2,08.1,0000.0,0003.12,0000.82,0000.47
2023-01-27 04:25:00,,0824.0,5.00,0.00,22.3,21.4,00.0,31.1,24.1,08.0,0000.0,0003.14,0000.78,0000.46
2023-01-27 04:26:00,,0824.0,5.00,0.00,22.3,21.2,00.0,31.1,24.1,07.9,0000.0,0002.58,0000.77,0000.46
2023-01-27 04:27:00,,0824.0,5.00,0.00,22.3,21.0,00.0,31.1,24.0,08.1,0000.0,0002.62,0000.80,0000.47
2023-01-27 04:28:00,,0824.0,5.01,0.00,22.3,20.9,00.0,31.1,24.0,08.2,0000.0,0002.61,0000.80,0000.46
2023-01-27 04:29:00,,0824.0,5.02,0.00,22.3,20.8,00.0,31.1,24.0,08.0,0000.0,0002.29,0000.77,0000.47
2023-01-27 04:30:00,,0824.0,5.02,0.00,22.2,20.7,00.0,31.1,23.9,08.2,0000.0,0001.97,0000.73,0000.46
2023-01-27 04:31:00,,0824.0,5.03,0.00,22.2,20.7,00.0,31.1,23.9,08.2,0000.0,0002.09,0000.74,0000.46
2023-01-27 04:32:00,,0823.9,5.01,0.00,22.2,20.7,00.0,31.1,23.9,08.2,0000.0,0002.13,0000.75,0000.46
2023-01-27 04:33:00,,0824.0,5.00,0.00,22.2,20.6,00.0,31.1,23.9,08.0,0000.0,0002.13,0000.76,0000.46
2023-01-27 04:34:00,,0824.0,5.00,0.00,22.2,20.6,00.0,31.1,23.9,08.1,0000.0,0002.01,0000.72,0000.46
2023-01-27 04:35:00,,0823.9,5.00,0.00,22.2,20.5,00.0,31.1,23.9,08.2,0000.0,0001.75,0000.69,0000.45
2023-01-27 04:36:00,,0823.8,4.99,0.00,22.1,20.5,00.0,31.0,23.9,08.2,0000.0,0001.56,0000.66,0000.45
2023-01-27 04:37:00,,0823.8,5.02,0.00,22.1,20.5,00.0,31.0,23.9,07.9,0000.0,0001.54,0000.65,0000.45
2023-01-27 04:38:00,,0823.9,5.01,0.00,22.1,20.4,00.0,31.0,23.8,08.1,0000.0,0001.47,0000.62,0000.44
2023-01-27 04:39:00,,0823.8,5.00,0.00,22.1,20.3,00.0,31.0,23.7,08.0,0000.0,0001.48,0000.62,0000.44
2023-01-27 04:40:00,,0824.0,5.00,0.00,22.1,21.3,00.0,30.9,23.9,08.0,0000.0,0001.28,0000.61,0000.44
2023-01-27 04:41:00,,0823.9,5.00,0.00,22.2,22.3,00.0,30.9,24.2,07.8,0000.0,0001.07,0000.62,0000.44
2023-01-27 04:42:00,,0824.0,5.00,0.00,22.3,22.8,00.0,31.0,24.3,07.7,0000.0,0001.65,0000.60,0000.44
2023-01-27 04:43:00,,0823.9,4.98,0.00,22.3,22.3,00.0,31.0,24.3,07.7,0000.0,0001.86,0000.60,0000.43
2023-01-27 04:44:00,,0823.9,5.00,0.00,22.3,21.9,00.0,31.1,24.2,07.6,0000.0,0002.10,0000.62,0000.43
2023-01-27 04:45:00,,0823.9,4.99,0.00,22.3,21.6,00.0,31.1,24.1,07.7,0000.0,0002.05,0000.60,0000.42
2023-01-27 04:46:00,,0823.8,4.98,0.00,22.3,21.3,00.0,31.1,24.1,07.8,0000.0,0001.98,0000.57,0000.42
2023-01-27 04:47:00,,0823.8,5.02,0.00,22.3,21.1,00.0,31.1,24.1,08.0,0000.0,0002.04,0000.59,0000.41
2023-01-27 04:48:00,,0823.8,4.99,0.00,22.3,21.0,00.0,31.1,24.0,08.0,0000.0,0002.17,0000.63,0000.41
2023-01-27 04:49:00,,0823.8,5.01,0.00,22.3,20.9,00.0,31.1,24.0,08.0,0000.0,0002.27,0000.65,0000.42
2023-01-27 04:50:00,,0823.8,5.01,0.00,22.3,20.8,00.0,31.1,24.0,08.0,0000.0,0002.28,0000.66,0000.42
2023-01-27 04:51:00,,0823.7,5.02,0.00,22.2,20.7,00.0,31.1,24.0,07.8,0000.0,0002.29,0000.67,0000.42
2023-01-27 04:52:00,,0823.7,5.00,0.00,22.2,20.6,00.0,31.1,24.0,07.6,0000.0,0002.37,0000.69,0000.42
2023-01-27 04:53:00,,0823.7,4.97,0.00,22.2,20.6,00.0,31.1,23.9,07.6,0000.0,0001.73,0000.66,0000.42
2023-01-27 04:54:00,,0823.7,4.99,0.00,22.2,20.5,00.0,31.1,23.9,07.7,0000.0,0001.46,0000.66,0000.42
2023-01-27 04:55:00,,0823.7,5.01,0.00,22.2,20.4,00.0,31.1,23.8,07.5,0000.0,0001.16,0000.64,0000.41
2023-01-27 04:56:00,,0823.7,4.99,0.00,22.1,20.4,00.0,31.1,23.8,07.5,0000.0,0001.27,0000.63,0000.41
2023-01-27 04:57:00,,0823.7,5.00,0.00,22.1,20.5,00.0,31.0,23.8,07.6,0000.0,0001.39,0000.63,0000.41
2023-01-27 04:58:00,,0823.7,5.01,0.00,22.1,20.6,00.0,31.0,23.8,07.7,0000.0,0001.35,0000.61,0000.40
2023-01-27 04:59:00,,0823.7,5.00,0.00,22.1,20.6,00.0,31.0,23.8,07.8,0000.0,0001.23,0000.57,0000.40
